Weather History for KSTC - August, 2013

Change the Weather History Date:

Monday, August 5, 2013

  Actual Average Record
Temperature  
Mean Temperature 69 °F 70 °F  
Max Temperature 82 °F 81 °F 98 °F (1947)
Min Temperature 55 °F 58 °F 42 °F (1994)
Degree Days  
Heating Degree Days 0 1  
Month to date heating degree days 7 5  
Since 1 June heating degree days 120 100  
Since 1 July heating degree days 33 22  
Cooling Degree Days 4 5  
Month to date cooling degree days 4 25  
Year to date cooling degree days 331 327  
Since 1 June cooling degree days 320 302  
Growing Degree Days 20 (Base 50)    
Moisture  
Dew Point 60 °F    
Average Humidity 74    
Maximum Humidity 100    
Minimum Humidity 47    
Precipitation  
Precipitation 0.31 in 0.11 in 1.95 in (1900)
Month to date precipitation 0.31 0.54  
Year to date precipitation 19.79 16.33  
Snow  
Snow 0.00 in 0.00 in 0.00 in ()
Month to date snowfall 0.0 0.0  
Since 1 June snowfall 0.0 0.0  
Since 1 July snowfall 0.0 0.0  
Snow Depth 0.00 in    
Sea Level Pressure  
Sea Level Pressure 29.91 in    
Wind  
Wind Speed 6 mph (WSW)    
Max Wind Speed 16 mph    
Max Gust Speed 21 mph    
Visibility 9 miles    
Events Rain , Thunderstorm    
T = Trace of Precipitation, MM = Missing Value Source: NWS Daily Summary

Daily Weather History Graph

Daily Weather History Graph

Search for Another Location

Airport or City:

Trip Planner

Search our weather history database for the weather conditions in past years. The results will help you decide how hot, cold, wet, or windy it might be!

Date:

Astronomy

Aug. 05, 2013 Rise Set
Actual Time 6:05 AM CDT 8:38 PM CDT
Civil Twilight 5:31 AM CDT 9:12 PM CDT
Nautical Twilight 4:49 AM CDT 9:54 PM CDT
Astronomical Twilight 4:00 AM CDT 10:42 PM CDT
Moon 5:01 AM CDT (8/5) 7:37 PM CDT (8/5)
Length of Visible Light 15h 40m
Length of Day
14h 33m
Waning Crescent, 1% of the Moon is Illuminated
Aug 5
Waning Crescent
Aug 6
New
Aug 14
First Quarter
Aug 20
Full
Aug 28
Last Quarter

Hourly Weather History & Observations

Time (CDT) Temp. Heat Index Dew Point Humidity Pressure Visibility Wind Dir Wind Speed Gust Speed Precip Events Conditions
12:53 AM 62.1 °F - 54.0 °F 75% 30.01 in 10.0 mi Calm Calm - N/A   Mostly Cloudy
1:32 AM 60.8 °F - 55.4 °F 82% 30.01 in 7.0 mi SW 5.8 mph - 0.01 in Rain , Thunderstorm Light Thunderstorms and Rain
1:43 AM 60.8 °F - 57.2 °F 88% 30.01 in 1.8 mi SSW 5.8 mph - 0.08 in Rain , Thunderstorm Heavy Thunderstorms and Rain
1:53 AM 60.1 °F - 57.9 °F 93% 30.03 in 2.0 mi NW 4.6 mph - 0.15 in Rain , Thunderstorm Thunderstorms and Rain
2:11 AM 60.8 °F - 57.2 °F 88% 30.00 in 2.5 mi SSW 4.6 mph - 0.08 in Rain Heavy Rain
2:22 AM 60.8 °F - 57.2 °F 88% 29.96 in 4.0 mi SSE 9.2 mph - 0.12 in Rain Rain
2:53 AM 60.1 °F - 57.9 °F 93% 29.94 in 10.0 mi SSE 13.8 mph - 0.16 in   Mostly Cloudy
3:25 AM 60.8 °F - 59.0 °F 94% 29.94 in 10.0 mi South 8.1 mph - N/A   Partly Cloudy
3:41 AM 60.8 °F - 59.0 °F 94% 29.93 in 10.0 mi SSW 5.8 mph - N/A   Mostly Cloudy
3:53 AM 60.1 °F - 60.1 °F 100% 29.94 in 10.0 mi South 3.5 mph - N/A   Overcast
4:16 AM 60.8 °F - 59.0 °F 94% 29.92 in 10.0 mi Calm Calm - N/A   Scattered Clouds
4:28 AM 60.8 °F - 59.0 °F 94% 29.92 in 10.0 mi Calm Calm - N/A   Mostly Cloudy
4:53 AM 61.0 °F - 60.1 °F 97% 29.94 in 10.0 mi Calm Calm - N/A   Overcast
5:53 AM 61.0 °F - 60.1 °F 97% 29.94 in 10.0 mi Calm Calm - N/A   Overcast
6:30 AM 60.8 °F - 60.8 °F 100% 29.91 in 10.0 mi Calm Calm - N/A   Overcast
6:38 AM 60.8 °F - 60.8 °F 100% 29.91 in 10.0 mi Calm Calm - N/A   Overcast
6:53 AM 62.1 °F - 60.1 °F 93% 29.93 in 10.0 mi Calm Calm - N/A   Overcast
7:53 AM 62.1 °F - 61.0 °F 96% 29.92 in 10.0 mi South 3.5 mph - 0.00 in   Overcast
8:53 AM 64.0 °F - 62.1 °F 93% 29.91 in 10.0 mi South 5.8 mph - 0.00 in   Mostly Cloudy
9:53 AM 66.0 °F - 62.1 °F 87% 29.91 in 10.0 mi SW 5.8 mph - N/A   Overcast
10:53 AM 71.1 °F - 63.0 °F 75% 29.88 in 10.0 mi Variable 4.6 mph - N/A   Mostly Cloudy
11:05 AM 71.6 °F - 62.6 °F 73% 29.86 in 10.0 mi WSW 6.9 mph - N/A   Mostly Cloudy
11:53 AM 72.0 °F - 63.0 °F 73% 29.88 in 10.0 mi Variable 3.5 mph - N/A   Mostly Cloudy
12:21 PM 73.4 °F - 62.6 °F 69% 29.86 in 10.0 mi Calm Calm - N/A   Mostly Cloudy
12:53 PM 75.0 °F - 62.1 °F 64% 29.87 in 10.0 mi NNW 5.8 mph - N/A   Mostly Cloudy
1:53 PM 77.0 °F - 61.0 °F 58% 29.85 in 10.0 mi NW 4.6 mph - N/A   Partly Cloudy
2:53 PM 80.1 °F 81.1 °F 61.0 °F 52% 29.84 in 10.0 mi WNW 8.1 mph - N/A   Mostly Cloudy
3:53 PM 82.0 °F 82.4 °F 60.1 °F 47% 29.83 in 10.0 mi West 8.1 mph - N/A   Scattered Clouds
4:53 PM 78.1 °F - 59.0 °F 52% 29.83 in 10.0 mi WNW 11.5 mph - N/A   Mostly Cloudy
5:53 PM 79.0 °F - 60.1 °F 52% 29.82 in 10.0 mi WNW 11.5 mph - N/A   Partly Cloudy
6:53 PM 77.0 °F - 60.1 °F 56% 29.82 in 10.0 mi WNW 11.5 mph - N/A   Clear
7:53 PM 73.0 °F - 60.1 °F 64% 29.82 in 10.0 mi WNW 9.2 mph - N/A   Clear
8:53 PM 68.0 °F - 59.0 °F 73% 29.83 in 10.0 mi WNW 12.7 mph - N/A   Clear
9:53 PM 63.0 °F - 57.9 °F 84% 29.86 in 10.0 mi WNW 8.1 mph - N/A   Clear
10:53 PM 59.0 °F - 57.0 °F 93% 29.88 in 10.0 mi WNW 4.6 mph - N/A   Clear
11:53 PM 59.0 °F - 55.9 °F 90% 29.88 in 10.0 mi NNW 3.5 mph - N/A   Clear